{"data":{"norad_id":46080,"intl_designator":"2020-055BF","name":"STARLINK-1568","alt_names":[],"object_type":"PAYLOAD","status":"ACTIVE","operator":null,"country":"US","launch_date":"2020-08-07","launch_site_code":"AFETR","launch_vehicle":null,"mission":null,"orbit_class":"UNKNOWN","rcs_meters":null,"size_class":null,"mass_kg":null,"dimensions":null,"purposes":["comms"],"wikipedia_slug":null,"has_3d_model":false,"image_url":null,"decayed_at":null,"tle_current":{"epoch":"2026-09-20T03:08:19.734144Z","epoch_age_seconds":50118,"freshness":"FRESH","line1":"1 46080U 20055BF  26263.13078396  .00050085  00000+0  52806-3 0  9997","line2":"2 46080  53.0532 173.3118 0004317  74.3461 285.8029 15.63761162340449","mean_motion":15.63761162,"eccentricity":0.0004317,"inclination_deg":53.0532,"raan_deg":173.3118,"arg_perigee_deg":74.3461,"mean_anomaly_deg":285.8029,"bstar":0.00052806,"rev_number":34044,"period_min":92.085673630511,"perigee_km":373.88788336159,"apogee_km":379.72009941356,"semimajor_km":6754.9409913876,"source":"CELESTRAK","updated_at":"2026-09-20T09:00:38.466093Z"}}}